Regional Weather Roundup
Issued by NWS

Home | Current Version | Previous Version | Text Only | Print | Product List | Glossary On
Versions: 1 2 3 4 5 6 7 8 9 10 11 12 13 14 15 16 17 18 19 20 21 22 23 24 25 26 27 28 29 30 31 32 33 34 35 36 37 38 39 40 41 42 43 44 45 46 47 48 49 50
000
ASUS43 KLMK 270610
RWRKY
KENTUCKY REGIONAL WEATHER ROUNDUP
NATIONAL WEATHER SERVICE LOUISVILLE KY
200 AM EDT SAT AUG 27 2016

NOTE "FAIR" INDICATES FEW OR NO CLOUDS BELOW 12,000 FEET
WITH NO SIGNIFICANT WEATHER AND/OR OBSTRUCTIONS TO VISIBILITY.

KYZ001>023-026-027-061>063-070>075-270700-
WESTERN AND SOUTH CENTRAL KENTUCKY

CITY           SKY/WX    TMP DP  RH WIND       PRES   REMARKS
PADUCAH        LGT RAIN  72  70  93 E9        30.06F
HENDERSON      CLOUDY    73  68  83 S12G21    30.13R
OWENSBORO      LGT RAIN  73  73 100 W12       30.13R FOG
HOPKINSVILLE   LGT RAIN  72  71  98 N9        30.09F
BOWLING GREEN  CLOUDY    77  70  79 NW5       30.11S
GLASGOW        CLOUDY    75  75 100 CALM      30.10F
$$

KYZ024-025-028>034-038-045-046-053-270700-
NORTH CENTRAL KENTUCKY

CITY           SKY/WX    TMP DP  RH WIND       PRES   REMARKS
LOUISVILLE/SDF CLOUDY    81  73  76 CALM      30.09S
LOUISVILLE/LOU CLOUDY    78  72  81 CALM      30.10S
FORT KNOX      MOCLDY    73  71  91 CALM      30.09S
$$

KYZ035>037-039>044-047>052-055>060-089>105-270700-
NORTHEAST KENTUCKY

CITY           SKY/WX    TMP DP  RH WIND       PRES   REMARKS
LEXINGTON      CLOUDY    74  69  85 CALM      30.13R
COVINGTON      CLOUDY    75  72  90 CALM      30.11S
FRANKFORT      CLOUDY    75  70  84 CALM      30.10S
$$

KYZ054-064>069-076>088-106>120-270700-
SOUTHEAST KENTUCKY

CITY           SKY/WX    TMP DP  RH WIND       PRES   REMARKS
JACKSON        CLEAR     74  70  87 CALM      30.15S
LONDON         CLEAR     72  68  87 CALM      30.13F
SOMERSET       CLOUDY    72  70  94 CALM      30.13F
MIDDLESBORO    PTCLDY    71  71  99 CALM      30.14F
MONTICELLO     CLOUDY   N/A N/A N/A CALM      30.14S
$$




USA.gov is the U.S. government's official web portal to all federal, state and local government web resources and services.